Location: Newark
(34.9500°N, 139.9667°E)
Time: 18:13:21
(UTC+00:00)

Transit 2A - Pass Details

Date: 16 December 2019
Orbit: 601 x 958 km, 66.7° (Epoch: 25 January)

Event Time Altitude Azimuth Distance (km) Brightness Sun altitude
Rises 20:07:40 0° 219° (SW) 3,127 - -18.6°
Exits shadow 20:09:49 - 223° (SW) 2,293 8.2 -18.2°
Reaches altitude 10° 20:10:11 10° 225° (SW) 2,153 8.1 -18.1°
Maximum altitude 20:14:51 48° 299° (WNW) 862 5.8 -17.2°
Drops below altitude 10° 20:19:12 10° 14° (NNE) 2,003 8.1 -16.3°
Sets 20:21:28 0° 21° (NNE) 2,885 9.0 -15.9°
